Waarnemingen

Advertentie
Mijn weer
Brindisi, Italië (16320): temperatuur & dauwpunt: 10.12.2017 15:00:00 - 16.12.2017 15:00:00 (CET)Brindisi, Italië (16320): windsnelheid: 10.12.2017 15:00:00 - 16.12.2017 15:00:00 (CET)Brindisi, Italië (16320): windrichting: 10.12.2017 15:00:00 - 16.12.2017 15:00:00 (CET)Brindisi, Italië (16320): luchtdruk: 10.12.2017 15:00:00 - 16.12.2017 15:00:00 (CET)Brindisi, Italië (16320): zicht: 10.12.2017 15:00:00 - 16.12.2017 15:00:00 (CET)Brindisi, Italië (16320): Zonneschijnduur: 10.12.2017 15:00:00 - 16.12.2017 15:00:00 (CET)
Datum & Tijd tt [°C] td [°C] ff [km/u] ff [kn] dd ppp [hPa] vv [km] sd [min]
16.12.2017 15:00:00 14,0 11,0 11 6 NNW - 10 -
16.12.2017 14:00:00 15,0 13,0 5 3 NNW - 10 -
16.12.2017 13:00:00 14,6 12,8 2 1 ONO 1008,2 10 0
16.12.2017 12:00:00 15,0 13,0 5 3 ONO - 10 -
16.12.2017 11:00:00 15,0 13,0 4 2 N - 10 -
16.12.2017 10:00:00 15,2 12,7 5 3 NNO 1008,2 10 0
16.12.2017 09:00:00 15,0 13,0 16 9 W - 10 -
16.12.2017 08:00:00 15,0 12,0 22 12 ZZW - 10 -
16.12.2017 07:00:00 14,4 12,3 22 12 Z 1005,1 10 0
16.12.2017 06:00:00 15,0 13,0 22 12 ZZO - 10 -
16.12.2017 05:00:00 15,0 12,0 22 12 ZZO - 10 -
16.12.2017 04:00:00 14,0 11,5 26 14 Z 1005,2 10 -
16.12.2017 03:00:00 15,0 13,0 29 16 ZZO - 10 -
16.12.2017 02:00:00 15,0 13,0 34 18 Z - 10 -
16.12.2017 01:00:00 15,0 13,0 48 26 Z 1006,2 10 -
16.12.2017 00:00:00 14,0 12,0 46 25 Z - 10 -
15.12.2017 23:00:00 14,0 12,0 39 21 Z - 10 -
15.12.2017 22:00:00 15,0 13,0 44 24 Z 1007,2 10 -
15.12.2017 21:00:00 15,0 13,0 35 19 Z - 10 -
15.12.2017 20:00:00 14,0 12,0 55 30 Z - 10 -
15.12.2017 19:00:00 14,4 12,3 37 20 Z 1008,1 10 -
15.12.2017 18:00:00 14,0 12,0 35 19 Z - 10 -
15.12.2017 17:00:00 14,0 12,0 26 14 Z - 10 -
15.12.2017 16:00:00 14,2 11,9 34 18 ZZO 1009,4 10 0
15.12.2017 15:00:00 14,0 12,0 34 18 Z - 10 -
15.12.2017 14:00:00 15,0 12,0 22 12 ZZO - 10 -
15.12.2017 13:00:00 14,6 12,5 26 14 Z 1011,6 10 -
15.12.2017 12:00:00 14,0 12,0 26 14 ZZO - 10 -
15.12.2017 11:00:00 14,0 12,0 28 15 ZZO - 10 -
15.12.2017 10:00:00 13,0 11,1 21 11 ZZO 1013,3 10 0
15.12.2017 09:00:00 13,0 11,0 16 9 ZZO - 10 -
15.12.2017 08:00:00 13,0 11,0 21 11 ZZO - 10 -
15.12.2017 07:00:00 12,0 10,4 24 13 Z 1012,9 10 -
15.12.2017 06:00:00 12,0 10,0 29 16 Z - 10 -
15.12.2017 05:00:00 12,0 10,0 34 18 ZZO - 10 -
15.12.2017 04:00:00 12,0 10,4 29 16 ZZO 1014,3 10 -
15.12.2017 03:00:00 12,0 10,0 26 14 Z - 10 -
15.12.2017 02:00:00 13,0 11,0 21 11 Z - 10 -
15.12.2017 01:00:00 13,0 11,4 21 11 ZZO 1016,2 10 -
15.12.2017 00:00:00 13,0 11,0 21 11 ZZO - 10 -
14.12.2017 23:00:00 13,0 11,0 34 18 Z - 10 -
14.12.2017 22:00:00 13,0 11,4 34 18 Z 1016,3 10 -
14.12.2017 21:00:00 13,0 11,0 26 14 Z - 10 -
14.12.2017 20:00:00 13,0 11,0 26 14 ZW - 10 -
14.12.2017 19:00:00 13,0 10,5 26 14 ZW 1016,5 10 -
14.12.2017 18:00:00 13,0 11,0 9 5 Z - 10 -
14.12.2017 17:00:00 13,0 11,0 13 7 Z - 10 -
14.12.2017 16:00:00 14,0 9,7 13 7 Z 1016,6 10 0
14.12.2017 15:00:00 14,0 10,0 13 7 ZZO - 10 -
14.12.2017 14:00:00 15,0 8,0 13 7 Z - 10 -
14.12.2017 13:00:00 15,0 8,5 18 10 Z 1017,4 10 24
14.12.2017 12:00:00 15,0 8,0 31 17 ZW - 10 -
14.12.2017 11:00:00 14,0 8,0 21 11 ZW - 10 -
14.12.2017 10:00:00 13,0 7,7 24 13 ZW 1018,3 10 60
14.12.2017 09:00:00 11,0 8,0 18 10 ZZW - 10 -
14.12.2017 08:00:00 10,0 7,0 21 11 ZW - 10 -
14.12.2017 07:00:00 8,4 6,0 22 12 ZW 1018,8 10 0
14.12.2017 06:00:00 8,0 5,0 4 2 Z - 8 -
14.12.2017 05:00:00 10,0 7,0 4 2 Z - 8 -
14.12.2017 04:00:00 10,2 7,8 5 3 Z 1018,8 8 -
14.12.2017 03:00:00 10,0 8,0 9 5 Z - 8 -
14.12.2017 02:00:00 - - - - - - - -
14.12.2017 01:00:00 11,0 8,7 9 5 W 1018,8 8 -
14.12.2017 00:00:00 11,0 9,0 9 5 ZW - 8 -
13.12.2017 23:00:00 11,0 9,0 4 2 WZW - 8 -
13.12.2017 22:00:00 12,0 9,9 2 1 WZW 1019,2 8 -
13.12.2017 21:00:00 12,0 10,0 5 3 WZW - 8 -
13.12.2017 20:00:00 13,0 11,0 4 2 NNW - 8 -
13.12.2017 19:00:00 13,6 11,5 18 10 NW 1018,6 8 -
13.12.2017 18:00:00 14,0 12,0 8 4 NW - 8 -
13.12.2017 17:00:00 15,0 12,0 8 4 NW - 10 -
13.12.2017 16:00:00 16,0 13,8 13 7 W 1018,9 8 0
13.12.2017 15:00:00 16,0 14,0 18 10 Z - 8 -
13.12.2017 14:00:00 16,0 14,0 2 1 Z - 8 -
13.12.2017 13:00:00 15,4 13,3 18 10 ZZO 1020,1 8 0
13.12.2017 12:00:00 15,0 13,0 21 11 ZZO - 7 -
13.12.2017 11:00:00 15,0 13,0 21 11 Z - 7 -
13.12.2017 10:00:00 14,2 12,1 24 13 Z 1020,2 8 0
13.12.2017 09:00:00 14,0 12,0 26 14 Z - 8 -
13.12.2017 08:00:00 14,0 12,0 18 10 ZZO - 10 -
13.12.2017 07:00:00 14,0 12,2 18 10 ZO 1020,2 10 0
13.12.2017 06:00:00 14,0 12,0 18 10 ZO - 7 -
13.12.2017 05:00:00 14,0 12,0 24 13 ZZO - 7 -
13.12.2017 04:00:00 14,6 13,0 24 13 ZO 1020,2 10 -
13.12.2017 03:00:00 15,0 13,0 24 13 ZO - 10 -
13.12.2017 02:00:00 15,0 13,0 29 16 Z - 10 -
13.12.2017 01:00:00 15,0 13,5 28 15 Z 1020,6 10 -
13.12.2017 00:00:00 15,0 14,0 24 13 ZZO - 10 -
12.12.2017 23:00:00 15,0 14,0 24 13 Z - 10 -
12.12.2017 22:00:00 15,0 13,7 34 18 Z 1020,6 10 -
12.12.2017 21:00:00 15,0 14,0 28 15 Z - 10 -
12.12.2017 20:00:00 15,0 14,0 28 15 ZZO - 10 -
12.12.2017 19:00:00 16,0 14,7 34 18 Z 1019,2 10 -
12.12.2017 18:00:00 16,0 15,0 37 20 Z - 10 -
12.12.2017 17:00:00 16,0 14,0 35 19 Z - 10 -
12.12.2017 16:00:00 17,0 14,7 41 22 Z 1019,1 10 30
12.12.2017 15:00:00 18,0 15,0 44 24 Z - 10 -
12.12.2017 14:00:00 17,0 14,0 41 22 Z - 10 -
12.12.2017 13:00:00 17,4 14,1 48 26 Z 1018,7 10 60
12.12.2017 12:00:00 17,0 14,0 46 25 Z - 10 -
12.12.2017 11:00:00 17,0 14,0 46 25 Z - 10 -
12.12.2017 10:00:00 16,4 14,8 42 23 Z 1019,2 10 30
12.12.2017 09:00:00 16,0 15,0 35 19 Z - 10 -
12.12.2017 08:00:00 15,0 13,0 26 14 ZZO - 10 -
12.12.2017 07:00:00 15,0 13,4 29 16 ZZO 1018,1 10 0
12.12.2017 06:00:00 15,0 13,0 28 15 ZZO - 10 -
12.12.2017 05:00:00 15,0 13,0 41 22 ZZO - 10 -
12.12.2017 04:00:00 15,0 13,4 37 20 ZZO 1017,2 10 -
12.12.2017 03:00:00 - - - - - - - -
12.12.2017 02:00:00 15,0 14,0 46 25 Z - 10 -
12.12.2017 01:00:00 15,0 13,4 54 29 Z 1016,8 10 -
12.12.2017 00:00:00 15,0 14,0 57 31 Z - 10 -
11.12.2017 23:00:00 15,0 13,0 46 25 Z - 10 -
11.12.2017 22:00:00 14,0 12,5 42 23 ZZO 1017,1 10 -
11.12.2017 21:00:00 14,0 13,0 35 19 ZZO - 10 -
11.12.2017 20:00:00 14,0 13,0 39 21 ZZO - 10 -
11.12.2017 19:00:00 14,2 12,8 39 21 ZZO 1017,1 10 -
11.12.2017 18:00:00 14,0 13,0 35 19 ZZO - 10 -
11.12.2017 17:00:00 14,0 13,0 39 21 ZZO - 10 -
11.12.2017 16:00:00 15,6 13,6 42 23 ZZO 1017,1 10 0
11.12.2017 15:00:00 16,0 13,0 44 24 ZZO - 10 -
11.12.2017 14:00:00 16,0 12,0 52 28 Z - 10 -
11.12.2017 13:00:00 15,8 11,2 46 25 Z 1017,3 10 60
11.12.2017 12:00:00 15,0 10,0 44 24 Z - 10 -
11.12.2017 11:00:00 15,0 10,0 54 29 Z - 10 -
11.12.2017 10:00:00 11,8 10,2 41 22 Z 1018,9 10 0
11.12.2017 09:00:00 11,0 10,0 16 9 Z - 10 -
11.12.2017 08:00:00 11,0 10,0 22 12 Z - 10 -
11.12.2017 07:00:00 9,0 7,9 16 9 ZZO 1017,4 10 -
11.12.2017 06:00:00 9,0 7,0 15 8 ZO - 10 -
11.12.2017 05:00:00 8,0 6,0 24 13 ZZO - 10 -
11.12.2017 04:00:00 8,0 6,5 24 13 ZZO 1018,7 10 -
11.12.2017 03:00:00 8,0 6,0 15 8 ZZO - 10 -
11.12.2017 02:00:00 8,0 6,0 15 8 ZZO - 10 -
11.12.2017 01:00:00 8,0 6,5 15 8 ZZO 1018,7 10 -
11.12.2017 00:00:00 8,0 6,0 15 8 ZZO - 10 -
10.12.2017 23:00:00 8,0 6,0 22 12 ZZO - 10 -
10.12.2017 22:00:00 7,0 4,7 22 12 ZZO 1019,2 10 -
10.12.2017 21:00:00 7,0 4,0 28 15 ZZO - 10 -
10.12.2017 20:00:00 7,0 4,0 28 15 ZZO - 10 -
10.12.2017 19:00:00 8,0 4,8 24 13 ZZO 1019,3 10 -
10.12.2017 18:00:00 8,0 3,0 21 11 ZZO - 10 -
10.12.2017 17:00:00 9,0 0,0 16 9 Z - 10 -
10.12.2017 16:00:00 11,0 -2,1 15 8 ZW 1019,3 10 60
10.12.2017 15:00:00 12,0 -3,0 21 11 ZW - 10 -

tt = temperatuur
td = dauwpunt
ff = windsnelheid
dd = windrichting
ppp = luchtdruk
vv = zicht
sd = Zonneschijnduur

Weerstations in de omgeving